Regional Weather Roundup
Issued by NWS

Home | Current Version | Previous Version | Text Only | Print | Product List | Glossary Off
Versions: 1 2 3 4 5 6 7 8 9 10 11 12 13 14 15 16 17 18 19 20 21 22 23 24 25 26 27 28 29 30 31 32 33 34 35 36 37 38 39 40 41 42 43 44 45 46 47 48 49 50

285
ASUS43 KFSD 241702
RWRSD

WEATHER ROUNDUP FOR SOUTH DAKOTA
NATIONAL WEATHER SERVICE SIOUX FALLS SD
1100 AM CST FRI FEB 24 2017

NOTE: "FAIR" INDICATES FEW OR NO CLOUDS BELOW 12,000 FEET WITH NO
SIGNIFICANT WEATHER AND/OR OBSTRUCTIONS TO VISIBILITY.


SDZ001>005-009-010-012>017-241800-
NORTHWEST AND NORTH CENTRAL SOUTH DAKOTA

CITY           SKY/WX    TMP DP  RH WIND       PRES   REMARKS
BUFFALO          N/A     21  13  71 S7        30.03R WCI  12
FAITH            N/A     22  13  68 CALM      30.12R
MOBRIDGE       MOSUNNY   28  16  60 N12       30.09S WCI  18
$$

SDZ012>016-024>037-041>051-057-063-072>074-241800-
SOUTHWEST AND SOUTH CENTRAL SOUTH DAKOTA

CITY           SKY/WX    TMP DP  RH WIND       PRES   REMARKS
RAPID CTY ARPT CLOUDY    19  14  81 E3        30.09R
PIERRE         CLOUDY    26  13  57 NW10      30.11F WCI  16
CUSTER         CLOUDY    17   2  51 VRB3      29.92R
ELLSWORTH AFB  CLOUDY    19  15  86 E3        30.07
PHILIP         CLOUDY    25  11  55 NE9       30.13S WCI  15
PINE RIDGE     CLOUDY    21  17  84 NE9       30.06S WCI  11
SPEARFISH      FAIR      16  14  93 NE6       30.03S WCI   7
WINNER         FAIR      24  14  65 N18       30.08S WCI  10
$$

SDZ004>011-016>023-039-040-241800-
NORTHEAST SOUTH DAKOTA

CITY           SKY/WX    TMP DP  RH WIND       PRES   REMARKS
ABERDEEN       MOSUNNY   26  14  60 N17G28    30.09S WCI  13
WATERTOWN      CLOUDY    23  11  60 N25       29.98S WCI   7
BROOKINGS      PTSUNNY   23  10  57 NE24G36   29.94S WCI   7
SISSETON         N/A     24  15  68 N26       30.04F WCI   8
$$

SDZ017-020-022-023-036>040-048>070-241800-
SOUTHEAST SOUTH DAKOTA

CITY           SKY/WX    TMP DP  RH WIND       PRES   REMARKS
SIOUX FALLS    CLOUDY    22  13  68 N22G31    29.92S WCI   6
HURON          MOSUNNY   27  14  58 N20G25    30.06S WCI  13
CHAMBERLAIN    PTSUNNY   27  16  63 N18G26    30.07F WCI  14
MITCHELL       CLOUDY    27  15  61 N28G35    30.03S WCI  11
YANKTON        CLOUDY   N/A N/A N/A N23G33    29.95R
$$

ABBREVIATIONS USED IN REMARKS
   TC - TEMPERATURE IN CELSIUS
  WCI - WIND CHILL INDEX
   HX - HEAT INDEX
  VSB - VISIBILITY





USA.gov is the U.S. government's official web portal to all federal, state and local government web resources and services.